FKH5501 UZTT-HESH

Flight info

Callsign FKH5501
Flight time N/A
Altitude 30000
Route DIBAD2A DIBAD N193 OGOLI T898 ZAMWO Z626 DARVA/N0469F300 B476 METKA L88 RASAM N199 EDATA N161 REBGI/N0471F320 N161 INDUR UN161 ERZ UL615 UTURI UA4 OTSOV UL615 SIV UA285 SELVI/N0463F330 UA285 MUT UA28 DOREN N131 EMEDA L13 STEPA L550 DATOK J981 NOVPA NOVPA2G
Aircraft B753/M-SDE2E3FGHIJ3J4J7RWXY/LB1

Departure

Time 2026-04-14 13:29
Airport Tashkent International Airport (UZTT)

Arrival

Time N/A
Airport Sharm El Sheikh International Airport (HESH)
Time Latitude Longitude Altitude Speed Heading
2026-04-14 12:31 41.26225 69.27653 1428 ft 0 kts 261°
2026-04-14 13:14 41.26226 69.27667 1427 ft 2 kts 261°
2026-04-14 13:14 41.26228 69.27687 1427 ft 2 kts 261°
2026-04-14 13:14 41.26227 69.27707 1427 ft 2 kts 300°
2026-04-14 13:14 41.26217 69.27721 1427 ft 2 kts 331°
2026-04-14 13:15 41.26202 69.27727 1427 ft 2 kts 356°
2026-04-14 13:15 41.26188 69.27729 1427 ft 2 kts 351°
2026-04-14 13:15 41.26173 69.27732 1427 ft 2 kts 350°
2026-04-14 13:15 41.26158 69.27735 1427 ft 2 kts 351°
2026-04-14 13:16 41.26143 69.27738 1427 ft 2 kts 342°
2026-04-14 13:16 41.26130 69.27749 1427 ft 2 kts 310°
2026-04-14 13:16 41.26123 69.27766 1427 ft 2 kts 283°
2026-04-14 13:16 41.26122 69.27786 1427 ft 2 kts 255°
2026-04-14 13:17 41.26126 69.27805 1427 ft 2 kts 253°
2026-04-14 13:17 41.26129 69.27818 1427 ft 1 kts 260°
2026-04-14 13:17 41.26129 69.27819 1427 ft 0 kts 261°
2026-04-14 13:21 41.26127 69.27800 1427 ft 3 kts 261°
2026-04-14 13:21 41.26121 69.27748 1427 ft 7 kts 262°
2026-04-14 13:21 41.26112 69.27663 1427 ft 11 kts 261°
2026-04-14 13:21 41.26096 69.27529 1427 ft 16 kts 261°
2026-04-14 13:22 41.26081 69.27389 1427 ft 14 kts 261°
2026-04-14 13:22 41.26062 69.27290 1427 ft 9 kts 226°
2026-04-14 13:22 41.26014 69.27299 1427 ft 7 kts 143°
2026-04-14 13:22 41.25978 69.27341 1427 ft 6 kts 139°
2026-04-14 13:23 41.25940 69.27386 1427 ft 8 kts 139°
2026-04-14 13:23 41.25887 69.27447 1427 ft 11 kts 139°
2026-04-14 13:23 41.25807 69.27494 1427 ft 14 kts 192°
2026-04-14 13:23 41.25764 69.27380 1427 ft 16 kts 262°
2026-04-14 13:24 41.25747 69.27218 1427 ft 19 kts 261°
2026-04-14 13:24 41.25710 69.26883 1427 ft 15 kts 261°
2026-04-14 13:24 41.25695 69.26747 1427 ft 14 kts 261°
2026-04-14 13:25 41.25679 69.26604 1427 ft 16 kts 261°
2026-04-14 13:25 41.25662 69.26445 1427 ft 18 kts 262°
2026-04-14 13:26 41.25600 69.25890 1427 ft 20 kts 261°
2026-04-14 13:26 41.25616 69.25799 1427 ft 7 kts 301°
2026-04-14 13:26 41.25613 69.25741 1427 ft 5 kts 219°
2026-04-14 13:26 41.25586 69.25759 1427 ft 5 kts 113°
2026-04-14 13:27 41.25590 69.25816 1427 ft 7 kts 78°
2026-04-14 13:27 41.25597 69.25867 1427 ft 0 kts 80°
2026-04-14 13:27 41.25598 69.25871 1427 ft 0 kts 80°
2026-04-14 13:27 41.25599 69.25874 1427 ft 0 kts 80°
2026-04-14 13:28 41.25604 69.25921 1427 ft 16 kts 81°
2026-04-14 13:28 41.25648 69.26306 1427 ft 68 kts 81°
2026-04-14 13:28 41.25741 69.27161 1427 ft 118 kts 82°
2026-04-14 13:28 41.25885 69.28468 1428 ft 163 kts 81°
2026-04-14 13:29 41.26064 69.30107 1601 ft 187 kts 81°
2026-04-14 13:29 41.26225 69.31848 2023 ft 197 kts 82°
2026-04-14 13:29 41.26397 69.33699 2520 ft 208 kts 81°
2026-04-14 13:29 41.26598 69.35563 3112 ft 202 kts 82°
2026-04-14 13:30 41.26802 69.37434 3426 ft 209 kts 82°
2026-04-14 13:30 41.26829 69.39414 3574 ft 225 kts 105°
2026-04-14 13:30 41.26012 69.41232 3837 ft 235 kts 140°
2026-04-14 13:30 41.24515 69.42239 4003 ft 253 kts 171°
2026-04-14 13:31 41.22796 69.42039 4545 ft 253 kts 202°
2026-04-14 13:31 41.21366 69.40694 5067 ft 256 kts 232°
2026-04-14 13:31 41.20475 69.38674 5551 ft 261 kts 243°
2026-04-14 13:31 41.19449 69.36603 5821 ft 276 kts 221°
2026-04-14 13:32 41.17871 69.35218 6517 ft 273 kts 213°
2026-04-14 13:32 41.16545 69.33440 7012 ft 277 kts 240°
2026-04-14 13:32 41.15981 69.31011 7574 ft 279 kts 268°
2026-04-14 13:32 41.16324 69.28489 8105 ft 281 kts 295°
2026-04-14 13:33 41.17369 69.26299 8656 ft 283 kts 306°
2026-04-14 13:33 41.18498 69.24170 9217 ft 286 kts 302°
2026-04-14 13:33 41.19388 69.21817 9751 ft 288 kts 289°
2026-04-14 13:33 41.19942 69.19266 10285 ft 291 kts 282°
2026-04-14 13:34 41.20636 69.13635 10461 ft 331 kts 277°
2026-04-14 13:34 41.20896 69.10572 11103 ft 332 kts 276°
2026-04-14 13:34 41.21132 69.07515 11694 ft 335 kts 275°
2026-04-14 13:35 41.21354 69.04453 12262 ft 338 kts 275°
2026-04-14 13:35 41.21571 69.01334 12853 ft 341 kts 275°
2026-04-14 13:35 41.21788 68.98164 13417 ft 344 kts 275°
2026-04-14 13:35 41.22001 68.94995 13983 ft 347 kts 275°
2026-04-14 13:36 41.22215 68.91798 14533 ft 350 kts 275°
2026-04-14 13:36 41.22429 68.88588 15077 ft 353 kts 275°
2026-04-14 13:36 41.22641 68.85367 15607 ft 355 kts 275°
2026-04-14 13:36 41.22775 68.83334 15934 ft 357 kts 275°
2026-04-14 13:37 41.22992 68.80038 16452 ft 360 kts 275°
2026-04-14 13:37 41.23208 68.76717 16960 ft 363 kts 275°
2026-04-14 13:37 41.23381 68.74068 17356 ft 365 kts 275°
2026-04-14 13:37 41.23569 68.71224 18059 ft 357 kts 273°
2026-04-14 13:38 41.23776 68.68018 18719 ft 356 kts 273°
2026-04-14 13:38 41.23986 68.64708 18998 ft 363 kts 273°
2026-04-14 13:38 41.24197 68.61401 19595 ft 361 kts 273°
2026-04-14 13:38 41.24409 68.58056 19983 ft 365 kts 273°
2026-04-14 13:39 41.24620 68.54707 20458 ft 366 kts 273°
2026-04-14 13:39 41.24834 68.51312 20894 ft 369 kts 273°
2026-04-14 13:39 41.25046 68.47931 21323 ft 371 kts 273°
2026-04-14 13:39 41.25260 68.44509 21753 ft 372 kts 273°
2026-04-14 13:40 41.25473 68.41078 22165 ft 374 kts 273°
2026-04-14 13:40 41.25685 68.37650 22571 ft 376 kts 273°
2026-04-14 13:40 41.25900 68.34157 22972 ft 378 kts 272°
2026-04-14 13:40 41.26112 68.30673 23328 ft 382 kts 274°
2026-04-14 13:41 41.26292 68.27677 23334 ft 392 kts 274°
2026-04-14 13:41 41.26346 68.26802 23338 ft 395 kts 274°
2026-04-14 13:41 41.26573 68.23154 23818 ft 393 kts 273°
2026-04-14 13:41 41.26785 68.19667 24813 ft 379 kts 272°
2026-04-14 13:42 41.26997 68.16089 24862 ft 390 kts 273°
2026-04-14 13:42 41.27209 68.12520 25309 ft 389 kts 273°
2026-04-14 13:42 41.27420 68.08951 25651 ft 391 kts 273°
2026-04-14 13:42 41.27632 68.05340 25975 ft 393 kts 273°
2026-04-14 13:43 41.27844 68.01744 26331 ft 394 kts 273°
2026-04-14 13:43 41.28057 67.98076 26648 ft 396 kts 273°
2026-04-14 13:43 41.28277 67.94431 26976 ft 398 kts 275°
2026-04-14 13:43 41.28735 67.90826 27280 ft 401 kts 280°
2026-04-14 13:44 41.29303 67.87213 27590 ft 402 kts 279°
2026-04-14 13:44 41.29868 67.83552 27895 ft 404 kts 279°
2026-04-14 13:44 41.30431 67.79919 28188 ft 405 kts 280°
2026-04-14 13:44 41.31007 67.76201 28483 ft 407 kts 280°
2026-04-14 13:45 41.31574 67.72540 28764 ft 408 kts 280°
2026-04-14 13:45 41.32143 67.68859 29040 ft 410 kts 280°
2026-04-14 13:45 41.32716 67.65144 29312 ft 411 kts 280°
2026-04-14 13:45 41.33288 67.61427 29577 ft 413 kts 280°
2026-04-14 13:46 41.33861 67.57693 29836 ft 414 kts 280°
2026-04-14 13:46 41.34435 67.53951 30088 ft 415 kts 280°
2026-04-14 13:46 41.35016 67.50153 30338 ft 417 kts 280°
2026-04-14 13:46 41.35587 67.46392 30504 ft 420 kts 282°
2026-04-14 13:47 41.36174 67.42528 30503 ft 428 kts 282°
2026-04-14 13:47 41.37369 67.34664 30522 ft 442 kts 281°
2026-04-14 13:48 41.38038 67.30241 30576 ft 448 kts 281°
2026-04-14 13:48 41.38649 67.26206 30995 ft 443 kts 279°
2026-04-14 13:48 41.39230 67.22382 32448 ft 414 kts 279°
2026-04-14 13:48 41.39786 67.18651 32753 ft 414 kts 279°
2026-04-14 13:49 41.40349 67.14871 32798 ft 418 kts 279°
2026-04-14 13:49 41.40910 67.11108 33041 ft 417 kts 279°
2026-04-14 13:49 41.41472 67.07332 33272 ft 417 kts 279°
2026-04-14 13:49 41.42038 67.03522 33463 ft 417 kts 279°
2026-04-14 13:50 41.42598 66.99738 33653 ft 418 kts 279°
2026-04-14 13:50 41.43156 66.95963 33840 ft 418 kts 278°
2026-04-14 13:50 41.43720 66.92142 33939 ft 418 kts 278°
2026-04-14 13:51 41.44835 66.84547 33941 ft 422 kts 278°
2026-04-14 13:51 41.45966 66.76806 33940 ft 430 kts 279°
2026-04-14 13:52 41.47103 66.68995 33938 ft 435 kts 279°
2026-04-14 13:52 41.48138 66.61050 33939 ft 432 kts 272°
2026-04-14 13:53 41.48261 66.52899 33936 ft 431 kts 269°
2026-04-14 13:53 41.48307 66.44570 33935 ft 431 kts 269°
2026-04-14 13:54 41.48331 66.36036 33935 ft 431 kts 269°
2026-04-14 13:54 41.48341 66.27537 33940 ft 431 kts 268°
2026-04-14 13:55 41.48344 66.18906 33940 ft 431 kts 268°
2026-04-14 13:55 41.48340 66.10712 33939 ft 431 kts 268°
2026-04-14 13:56 41.48329 66.02652 33939 ft 431 kts 268°
2026-04-14 13:56 41.48313 65.94696 33933 ft 431 kts 268°
2026-04-14 13:57 41.48292 65.86700 33919 ft 431 kts 268°
2026-04-14 13:57 41.48263 65.78741 33906 ft 431 kts 268°
2026-04-14 13:58 41.48181 65.70738 33897 ft 431 kts 268°
2026-04-14 13:58 41.48093 65.62757 33896 ft 431 kts 268°
2026-04-14 13:59 41.47992 65.54182 33895 ft 431 kts 268°
2026-04-14 13:59 41.47878 65.45111 33892 ft 431 kts 268°
2026-04-14 14:00 41.47760 65.36249 33886 ft 431 kts 268°
2026-04-14 14:00 41.47634 65.27318 33887 ft 431 kts 267°
2026-04-14 14:01 41.47501 65.18388 33886 ft 430 kts 267°
2026-04-14 14:01 41.47362 65.09493 33885 ft 430 kts 267°
2026-04-14 14:02 41.47222 65.00923 33885 ft 430 kts 267°
2026-04-14 14:02 41.47085 64.92962 33884 ft 428 kts 268°
2026-04-14 14:03 41.46932 64.84377 33884 ft 427 kts 268°
2026-04-14 14:03 41.46783 64.76348 33882 ft 426 kts 268°
2026-04-14 14:04 41.46632 64.68474 33828 ft 427 kts 268°
2026-04-14 14:04 41.46476 64.60605 33828 ft 427 kts 268°
2026-04-14 14:05 41.46313 64.52685 33827 ft 427 kts 268°
2026-04-14 14:05 41.46145 64.44791 33827 ft 427 kts 268°
2026-04-14 14:06 41.45972 64.36928 33826 ft 427 kts 268°
2026-04-14 14:06 41.45793 64.28997 33834 ft 427 kts 268°
2026-04-14 14:07 41.45609 64.21116 33832 ft 426 kts 268°
2026-04-14 14:07 41.45420 64.13257 33831 ft 427 kts 268°
2026-04-14 14:08 41.45225 64.05368 33831 ft 427 kts 268°
2026-04-14 14:08 41.45025 63.97478 33830 ft 427 kts 268°
2026-04-14 14:09 41.44819 63.89597 33830 ft 427 kts 268°
2026-04-14 14:09 41.44608 63.81705 33829 ft 427 kts 268°
2026-04-14 14:10 41.44391 63.73792 33828 ft 427 kts 268°
2026-04-14 14:10 41.44169 63.65921 33828 ft 427 kts 268°
2026-04-14 14:11 41.43930 63.58024 33827 ft 427 kts 268°
2026-04-14 14:11 41.43686 63.50165 33826 ft 427 kts 268°
2026-04-14 14:12 41.43436 63.42279 33826 ft 427 kts 268°
2026-04-14 14:12 41.43179 63.34347 33827 ft 427 kts 267°
2026-04-14 14:13 41.42919 63.26487 33833 ft 427 kts 267°
2026-04-14 14:13 41.42653 63.18585 33832 ft 426 kts 267°
2026-04-14 14:14 41.42384 63.10751 33833 ft 427 kts 267°
2026-04-14 14:14 41.42105 63.02855 33831 ft 424 kts 268°
2026-04-14 14:15 41.41825 62.95045 33830 ft 422 kts 268°
2026-04-14 14:15 41.41541 62.87275 33830 ft 420 kts 268°
2026-04-14 14:16 41.41254 62.79518 33833 ft 421 kts 268°
2026-04-14 14:16 41.40961 62.71740 33829 ft 421 kts 269°
2026-04-14 14:17 41.40513 62.60147 33847 ft 420 kts 269°
2026-04-14 14:17 41.40207 62.52386 33923 ft 419 kts 269°
2026-04-14 14:18 41.39915 62.44641 34002 ft 420 kts 268°
2026-04-14 14:18 41.39625 62.36911 34063 ft 418 kts 269°
2026-04-14 14:19 41.39330 62.29197 33950 ft 416 kts 268°
2026-04-14 14:19 41.39030 62.21463 33968 ft 418 kts 268°
2026-04-14 14:20 41.38725 62.13715 33969 ft 419 kts 268°
2026-04-14 14:20 41.38415 62.06001 33963 ft 417 kts 268°
2026-04-14 14:21 41.38099 61.98281 33965 ft 419 kts 268°
2026-04-14 14:21 41.37777 61.90549 33964 ft 418 kts 268°
2026-04-14 14:22 41.37453 61.82836 33968 ft 417 kts 268°
2026-04-14 14:22 41.37122 61.75120 33961 ft 418 kts 268°
2026-04-14 14:23 41.36780 61.67284 33960 ft 419 kts 268°
2026-04-14 14:23 41.36410 61.58888 33960 ft 418 kts 268°
2026-04-14 14:24 41.36036 61.50571 33958 ft 417 kts 268°
2026-04-14 14:24 41.35683 61.42876 33962 ft 419 kts 268°
2026-04-14 14:25 41.35327 61.35131 33955 ft 418 kts 269°
2026-04-14 14:25 41.34955 61.27144 33969 ft 420 kts 267°
2026-04-14 14:26 41.34581 61.19255 33965 ft 417 kts 267°
2026-04-14 14:26 41.34185 61.10997 33971 ft 416 kts 268°
2026-04-14 14:27 41.33787 61.02848 33964 ft 412 kts 267°
2026-04-14 14:27 41.33397 60.94966 33965 ft 410 kts 267°
2026-04-14 14:28 41.33016 60.87377 33966 ft 409 kts 267°
2026-04-14 14:28 41.32633 60.79824 33961 ft 410 kts 267°
2026-04-14 14:29 41.32243 60.72261 33966 ft 410 kts 268°
2026-04-14 14:29 41.31849 60.64703 33964 ft 411 kts 267°
2026-04-14 14:30 41.31451 60.57151 33958 ft 410 kts 267°
2026-04-14 14:30 41.31048 60.49611 33953 ft 410 kts 267°
2026-04-14 14:31 41.30749 60.42034 33970 ft 409 kts 273°
2026-04-14 14:31 41.31103 60.34521 33958 ft 409 kts 274°
2026-04-14 14:32 41.31470 60.26956 33973 ft 410 kts 274°
2026-04-14 14:32 41.31834 60.19412 33968 ft 408 kts 274°
2026-04-14 14:33 41.32229 60.11187 33966 ft 409 kts 274°
2026-04-14 14:33 41.32626 60.02911 33965 ft 410 kts 274°
2026-04-14 14:34 41.33205 59.90955 33963 ft 409 kts 274°
2026-04-14 14:35 41.33566 59.83408 33973 ft 410 kts 274°
2026-04-14 14:35 41.33918 59.75903 33963 ft 409 kts 274°
2026-04-14 14:36 41.34252 59.68346 33963 ft 408 kts 272°
2026-04-14 14:36 41.33754 59.60812 33964 ft 411 kts 265°
2026-04-14 14:37 41.33074 59.53261 33959 ft 411 kts 264°
2026-04-14 14:37 41.32374 59.45733 33959 ft 410 kts 264°
2026-04-14 14:38 41.31666 59.38210 33962 ft 412 kts 264°
2026-04-14 14:38 41.30950 59.30676 33970 ft 410 kts 264°
2026-04-14 14:39 41.30227 59.23156 33963 ft 410 kts 264°
2026-04-14 14:39 41.29499 59.15608 33961 ft 410 kts 264°
2026-04-14 14:40 41.28697 59.07381 33967 ft 411 kts 264°
2026-04-14 14:40 41.27897 58.99213 33970 ft 410 kts 264°
2026-04-14 14:41 41.27157 58.91711 33967 ft 410 kts 263°
2026-04-14 14:41 41.26407 58.84181 33966 ft 411 kts 263°
2026-04-14 14:42 41.25653 58.76654 33964 ft 411 kts 263°
2026-04-14 14:42 41.24895 58.69132 33961 ft 411 kts 263°
2026-04-14 14:43 41.24134 58.61641 33965 ft 411 kts 263°
2026-04-14 14:43 41.23363 58.54099 33961 ft 410 kts 263°
2026-04-14 14:44 41.22591 58.46596 33963 ft 410 kts 263°
2026-04-14 14:44 41.21816 58.39097 33960 ft 411 kts 263°
2026-04-14 14:45 41.21034 58.31599 33973 ft 411 kts 262°
2026-04-14 14:45 41.20245 58.24082 33967 ft 411 kts 262°
2026-04-14 14:46 41.19409 58.16156 33968 ft 411 kts 262°
2026-04-14 14:46 41.18527 58.07854 33968 ft 411 kts 262°
2026-04-14 14:47 41.17703 58.00145 33968 ft 411 kts 262°
2026-04-14 14:47 41.16896 57.92654 33967 ft 411 kts 262°
2026-04-14 14:48 41.16081 57.85122 33965 ft 411 kts 262°
2026-04-14 14:48 41.15269 57.77664 33963 ft 411 kts 262°
2026-04-14 14:49 41.14446 57.70155 33964 ft 410 kts 262°
2026-04-14 14:49 41.13618 57.62651 33962 ft 411 kts 262°
2026-04-14 14:50 41.12789 57.55175 33958 ft 411 kts 262°
2026-04-14 14:50 41.11955 57.47704 33961 ft 412 kts 262°
2026-04-14 14:51 41.11111 57.40200 33960 ft 411 kts 262°
2026-04-14 14:51 41.10267 57.32719 33967 ft 411 kts 262°
2026-04-14 14:52 41.09415 57.25231 33966 ft 411 kts 262°
2026-04-14 14:52 41.08561 57.17763 33967 ft 411 kts 262°
2026-04-14 14:53 41.07702 57.10295 33965 ft 412 kts 262°
2026-04-14 14:53 41.06837 57.02818 33966 ft 411 kts 262°
2026-04-14 14:54 41.05966 56.95329 33966 ft 410 kts 262°
2026-04-14 14:54 41.05096 56.87896 33964 ft 410 kts 262°
2026-04-14 14:55 41.04221 56.80463 33963 ft 410 kts 262°
2026-04-14 14:55 41.03334 56.72975 33964 ft 411 kts 262°
2026-04-14 14:56 41.01967 56.61508 33963 ft 411 kts 262°
2026-04-14 14:56 41.00981 56.53298 33961 ft 412 kts 262°
2026-04-14 14:57 41.00625 56.45050 33962 ft 411 kts 269°
2026-04-14 14:57 41.00519 56.36702 33963 ft 411 kts 269°
2026-04-14 14:58 41.00415 56.28496 34000 ft 412 kts 269°
2026-04-14 14:58 41.00312 56.20549 34024 ft 412 kts 268°
2026-04-14 14:59 41.00204 56.12663 34049 ft 412 kts 269°
2026-04-14 14:59 41.00095 56.05064 34059 ft 416 kts 269°
2026-04-14 15:00 40.99970 55.96665 34067 ft 421 kts 269°
2026-04-14 15:00 40.99838 55.88267 34070 ft 420 kts 269°
2026-04-14 15:01 40.99712 55.80521 34070 ft 421 kts 269°
2026-04-14 15:01 40.99585 55.72455 34072 ft 421 kts 269°
2026-04-14 15:02 40.99449 55.63757 34069 ft 421 kts 269°
2026-04-14 15:02 40.99311 55.55315 34069 ft 420 kts 269°
2026-04-14 15:03 40.99179 55.47608 34069 ft 421 kts 269°
2026-04-14 15:03 40.99041 55.39841 34066 ft 421 kts 269°
2026-04-14 15:04 40.98898 55.32096 34079 ft 421 kts 268°
2026-04-14 15:04 40.98750 55.24386 34074 ft 421 kts 268°
2026-04-14 15:05 40.98597 55.16683 34155 ft 421 kts 268°
2026-04-14 15:05 40.98439 55.08943 34155 ft 421 kts 268°
2026-04-14 15:06 40.98280 55.01418 34155 ft 421 kts 268°
2026-04-14 15:06 40.98112 54.93668 34153 ft 422 kts 268°
2026-04-14 15:07 40.97935 54.85923 34151 ft 423 kts 268°
2026-04-14 15:07 40.97747 54.78158 34151 ft 423 kts 268°
2026-04-14 15:08 40.97556 54.70398 34147 ft 423 kts 268°
2026-04-14 15:08 40.97358 54.62622 34149 ft 423 kts 268°
2026-04-14 15:09 40.97156 54.54875 34151 ft 423 kts 268°
2026-04-14 15:09 40.96949 54.47136 34152 ft 424 kts 268°
2026-04-14 15:10 40.96735 54.39354 34147 ft 423 kts 268°
2026-04-14 15:10 40.96517 54.31608 34160 ft 424 kts 267°
2026-04-14 15:11 40.96293 54.23842 34156 ft 423 kts 267°
2026-04-14 15:11 40.96063 54.16031 34157 ft 424 kts 267°
2026-04-14 15:12 40.95829 54.08244 34158 ft 425 kts 267°
2026-04-14 15:12 40.95589 54.00485 34150 ft 424 kts 267°
2026-04-14 15:13 40.95345 53.92720 34153 ft 424 kts 267°
2026-04-14 15:13 40.95094 53.84927 34152 ft 424 kts 267°
2026-04-14 15:14 40.94840 53.77178 34155 ft 423 kts 267°
2026-04-14 15:14 40.94580 53.69424 34149 ft 425 kts 267°
2026-04-14 15:15 40.94313 53.61620 34149 ft 424 kts 267°
2026-04-14 15:15 40.94042 53.53831 34151 ft 425 kts 267°
2026-04-14 15:16 40.93766 53.46079 34146 ft 424 kts 267°
2026-04-14 15:16 40.93485 53.38297 34150 ft 424 kts 267°
2026-04-14 15:17 40.93198 53.30530 34155 ft 424 kts 266°
2026-04-14 15:17 40.92906 53.22780 34160 ft 424 kts 266°
2026-04-14 15:18 40.92609 53.15004 34154 ft 425 kts 266°
2026-04-14 15:18 40.92300 53.07212 34159 ft 424 kts 266°
2026-04-14 15:19 40.91986 52.99459 34155 ft 424 kts 266°
2026-04-14 15:19 40.91665 52.91702 34154 ft 426 kts 266°
2026-04-14 15:20 40.91335 52.83841 34151 ft 427 kts 266°
2026-04-14 15:20 40.91001 52.76016 34153 ft 429 kts 266°
2026-04-14 15:21 40.90660 52.68158 34148 ft 428 kts 266°
2026-04-14 15:21 40.90205 52.60334 34153 ft 428 kts 260°
2026-04-14 15:22 40.89047 52.52655 34149 ft 428 kts 259°
2026-04-14 15:22 40.87863 52.45002 34150 ft 428 kts 259°
2026-04-14 15:23 40.86657 52.37309 34148 ft 428 kts 259°
2026-04-14 15:23 40.85444 52.29626 34160 ft 429 kts 258°
2026-04-14 15:24 40.84219 52.21920 34159 ft 428 kts 258°
2026-04-14 15:24 40.83001 52.14286 34157 ft 428 kts 258°
2026-04-14 15:25 40.81765 52.06587 34154 ft 428 kts 258°
2026-04-14 15:25 40.80530 51.98918 34157 ft 428 kts 258°
2026-04-14 15:26 40.79292 51.91274 34153 ft 428 kts 258°
2026-04-14 15:26 40.78050 51.83628 34153 ft 428 kts 258°
2026-04-14 15:27 40.76789 51.75912 34151 ft 428 kts 258°
2026-04-14 15:27 40.75536 51.68276 34152 ft 428 kts 258°
2026-04-14 15:28 40.74278 51.60636 34151 ft 428 kts 258°
2026-04-14 15:28 40.73011 51.52986 34147 ft 429 kts 258°
2026-04-14 15:29 40.72339 51.45213 34150 ft 428 kts 267°
2026-04-14 15:29 40.72017 51.37405 34148 ft 430 kts 266°
2026-04-14 15:30 40.71697 51.29567 34162 ft 427 kts 266°
2026-04-14 15:30 40.71375 51.21759 34160 ft 428 kts 266°
2026-04-14 15:31 40.71050 51.13937 34159 ft 428 kts 266°
2026-04-14 15:31 40.70721 51.06159 34157 ft 427 kts 266°
2026-04-14 15:32 40.70388 50.98399 34159 ft 424 kts 266°
2026-04-14 15:32 40.70049 50.90634 34149 ft 421 kts 267°
2026-04-14 15:33 40.69712 50.82980 34159 ft 419 kts 267°
2026-04-14 15:33 40.69369 50.75336 34154 ft 421 kts 267°
2026-04-14 15:34 40.69019 50.67646 34147 ft 419 kts 267°
2026-04-14 15:34 40.68666 50.60007 34156 ft 421 kts 267°
2026-04-14 15:35 40.68307 50.52352 34155 ft 421 kts 266°
2026-04-14 15:35 40.67942 50.44671 34156 ft 421 kts 267°
2026-04-14 15:36 40.67571 50.36982 34142 ft 420 kts 267°
2026-04-14 15:36 40.67195 50.29319 34158 ft 421 kts 266°
2026-04-14 15:37 40.66817 50.21685 34158 ft 421 kts 266°
2026-04-14 15:37 40.66430 50.14003 34158 ft 421 kts 266°
2026-04-14 15:38 40.66037 50.06302 34160 ft 420 kts 266°
2026-04-14 15:38 40.65641 49.98636 34151 ft 421 kts 266°
2026-04-14 15:39 40.65242 49.90997 34150 ft 419 kts 266°
2026-04-14 15:39 40.64835 49.83320 34153 ft 421 kts 266°
2026-04-14 15:40 40.64424 49.75664 34153 ft 421 kts 266°
2026-04-14 15:40 40.64010 49.68015 34155 ft 421 kts 266°
2026-04-14 15:41 40.63589 49.60378 34147 ft 420 kts 266°
2026-04-14 15:41 40.63160 49.52677 34151 ft 421 kts 266°
2026-04-14 15:42 40.62732 49.45055 34146 ft 421 kts 266°
2026-04-14 15:42 40.62292 49.37355 34150 ft 421 kts 266°
2026-04-14 15:43 40.61852 49.29723 34163 ft 421 kts 266°
2026-04-14 15:43 40.61403 49.22025 34152 ft 419 kts 266°
2026-04-14 15:44 40.61146 49.14384 34160 ft 420 kts 269°
2026-04-14 15:44 40.61009 49.06729 34154 ft 418 kts 269°
2026-04-14 15:45 40.60865 48.99149 34155 ft 416 kts 269°
2026-04-14 15:45 40.60714 48.91584 34157 ft 414 kts 269°
2026-04-14 15:46 40.60556 48.84031 34161 ft 415 kts 269°
2026-04-14 15:46 40.60392 48.76430 34154 ft 415 kts 269°
2026-04-14 15:47 40.60226 48.68845 34158 ft 416 kts 269°
2026-04-14 15:47 40.60054 48.61318 34147 ft 414 kts 269°
2026-04-14 15:48 40.59877 48.53728 34153 ft 415 kts 269°
2026-04-14 15:48 40.59694 48.46148 34148 ft 414 kts 269°
2026-04-14 15:49 40.59509 48.38591 34151 ft 415 kts 269°
2026-04-14 15:49 40.59316 48.31022 34156 ft 414 kts 269°
2026-04-14 15:50 40.59121 48.23478 34152 ft 415 kts 268°
2026-04-14 15:50 40.58918 48.15929 34160 ft 414 kts 269°
2026-04-14 15:51 40.58712 48.08360 34164 ft 414 kts 269°
2026-04-14 15:51 40.58499 48.00809 34157 ft 415 kts 268°
2026-04-14 15:52 40.58354 47.93246 34160 ft 413 kts 272°
2026-04-14 15:52 40.58629 47.85686 34165 ft 415 kts 272°
2026-04-14 15:53 40.58885 47.78109 34164 ft 414 kts 272°
2026-04-14 15:53 40.59129 47.70587 34173 ft 414 kts 272°
2026-04-14 15:54 40.59484 47.59230 34174 ft 414 kts 272°
2026-04-14 15:55 40.59713 47.51697 34178 ft 415 kts 273°
2026-04-14 15:55 40.59937 47.44157 34171 ft 413 kts 273°
2026-04-14 15:56 40.60156 47.36609 34174 ft 414 kts 273°
2026-04-14 15:56 40.60370 47.29046 34178 ft 414 kts 272°
2026-04-14 15:57 40.60581 47.21464 34167 ft 414 kts 272°
2026-04-14 15:57 40.60030 47.13955 34153 ft 417 kts 262°
2026-04-14 15:58 40.59061 47.06470 34139 ft 417 kts 262°
2026-04-14 15:58 40.58071 46.98978 34132 ft 416 kts 261°
2026-04-14 15:59 40.57070 46.91519 34129 ft 416 kts 261°
2026-04-14 15:59 40.56054 46.84009 34128 ft 417 kts 261°
2026-04-14 16:00 40.55035 46.76528 34127 ft 416 kts 261°
2026-04-14 16:00 40.54010 46.69044 34126 ft 417 kts 260°
2026-04-14 16:01 40.52986 46.61603 34121 ft 417 kts 261°
2026-04-14 16:01 40.51952 46.54136 34125 ft 417 kts 261°
2026-04-14 16:02 40.50913 46.46660 34121 ft 416 kts 261°
2026-04-14 16:02 40.49865 46.39156 34121 ft 416 kts 260°
2026-04-14 16:03 40.48815 46.31680 34134 ft 417 kts 260°
2026-04-14 16:03 40.47763 46.24224 34130 ft 416 kts 260°
2026-04-14 16:04 40.46703 46.16750 34132 ft 417 kts 260°
2026-04-14 16:04 40.45645 46.09317 34131 ft 417 kts 260°
2026-04-14 16:05 40.44576 46.01854 34127 ft 416 kts 260°
2026-04-14 16:05 40.43509 45.94439 34128 ft 417 kts 260°
2026-04-14 16:06 40.42409 45.86827 34189 ft 415 kts 260°
2026-04-14 16:06 40.41270 45.78984 34207 ft 417 kts 260°
2026-04-14 16:07 40.40180 45.71516 34204 ft 416 kts 260°
2026-04-14 16:07 40.39093 45.64080 34206 ft 416 kts 260°
2026-04-14 16:08 40.38088 45.56610 34205 ft 416 kts 261°
2026-04-14 16:08 40.37079 45.49131 34200 ft 416 kts 261°
2026-04-14 16:09 40.36066 45.41660 34201 ft 416 kts 261°
2026-04-14 16:09 40.35051 45.34214 34204 ft 416 kts 260°
2026-04-14 16:10 40.34031 45.26765 34215 ft 416 kts 260°
2026-04-14 16:10 40.33002 45.19295 34210 ft 416 kts 260°
2026-04-14 16:11 40.31967 45.11816 34209 ft 415 kts 260°
2026-04-14 16:11 40.30935 45.04385 34209 ft 414 kts 260°
2026-04-14 16:12 40.29892 44.96919 34209 ft 415 kts 259°
2026-04-14 16:12 40.28825 44.89317 34201 ft 413 kts 259°
2026-04-14 16:13 40.27738 44.81630 34214 ft 414 kts 259°
2026-04-14 16:13 40.26612 44.73676 34201 ft 414 kts 259°
2026-04-14 16:14 40.25559 44.66304 34212 ft 411 kts 259°
2026-04-14 16:14 40.24495 44.58877 34206 ft 415 kts 259°
2026-04-14 16:15 40.23478 44.51474 34205 ft 414 kts 259°
2026-04-14 16:15 40.22464 44.44052 34208 ft 414 kts 259°
2026-04-14 16:16 40.21449 44.36668 34202 ft 413 kts 259°
2026-04-14 16:16 40.20432 44.29301 34213 ft 414 kts 259°
2026-04-14 16:17 40.19404 44.21885 34222 ft 414 kts 258°
2026-04-14 16:17 40.18375 44.14517 34206 ft 412 kts 259°
2026-04-14 16:18 40.17344 44.07148 34212 ft 413 kts 259°
2026-04-14 16:18 40.16306 43.99778 34204 ft 411 kts 258°
2026-04-14 16:19 40.15268 43.92439 34207 ft 414 kts 259°
2026-04-14 16:19 40.14222 43.85076 34211 ft 411 kts 259°
2026-04-14 16:20 40.13171 43.77711 34205 ft 414 kts 258°
2026-04-14 16:20 40.12113 43.70344 34201 ft 412 kts 258°
2026-04-14 16:21 40.11383 43.62891 34206 ft 413 kts 264°
2026-04-14 16:21 40.10977 43.55381 34200 ft 415 kts 265°
2026-04-14 16:22 40.10569 43.47854 34200 ft 414 kts 265°
2026-04-14 16:22 40.10162 43.40377 34201 ft 414 kts 265°
2026-04-14 16:23 40.09745 43.32844 34182 ft 414 kts 264°
2026-04-14 16:23 40.09326 43.25348 34173 ft 413 kts 264°
2026-04-14 16:24 40.08902 43.17874 34159 ft 413 kts 264°
2026-04-14 16:24 40.08473 43.10350 34150 ft 418 kts 264°
2026-04-14 16:25 40.08038 43.02802 34152 ft 421 kts 264°
2026-04-14 16:25 40.07589 42.95130 34153 ft 424 kts 263°
2026-04-14 16:26 40.07138 42.87489 34156 ft 424 kts 263°
2026-04-14 16:26 40.06680 42.79771 34155 ft 424 kts 263°
2026-04-14 16:27 40.06221 42.72131 34148 ft 423 kts 263°
2026-04-14 16:27 40.05757 42.64494 34149 ft 425 kts 263°
2026-04-14 16:28 40.05286 42.56827 34144 ft 422 kts 263°
2026-04-14 16:28 40.04808 42.49163 34146 ft 424 kts 263°
2026-04-14 16:29 40.04322 42.41503 34145 ft 424 kts 262°
2026-04-14 16:29 40.03803 42.33879 34144 ft 423 kts 263°
2026-04-14 16:30 40.03279 42.26250 34155 ft 423 kts 262°
2026-04-14 16:30 40.02750 42.18597 34153 ft 423 kts 262°
2026-04-14 16:31 40.02217 42.10982 34153 ft 424 kts 262°
2026-04-14 16:31 40.01679 42.03346 34152 ft 424 kts 262°
2026-04-14 16:32 40.01135 41.95715 34154 ft 422 kts 262°
2026-04-14 16:32 40.00585 41.88065 34155 ft 424 kts 262°
2026-04-14 16:33 40.00030 41.80437 34169 ft 424 kts 262°
2026-04-14 16:33 39.99471 41.72740 34178 ft 425 kts 262°
2026-04-14 16:34 39.98905 41.64774 34176 ft 423 kts 262°
2026-04-14 16:34 39.98329 41.56776 34171 ft 425 kts 263°
2026-04-14 16:35 39.97765 41.48987 34181 ft 424 kts 262°
2026-04-14 16:35 39.97200 41.41286 34182 ft 423 kts 262°
2026-04-14 16:36 39.96633 41.33629 34176 ft 426 kts 262°
2026-04-14 16:36 39.96060 41.25954 34184 ft 423 kts 262°
2026-04-14 16:37 39.95682 41.18339 34187 ft 424 kts 267°
2026-04-14 16:37 39.95683 41.10624 34185 ft 427 kts 266°
2026-04-14 16:38 39.95680 41.02903 34180 ft 424 kts 266°
2026-04-14 16:38 39.95673 40.95257 34180 ft 426 kts 266°
2026-04-14 16:39 39.95663 40.87513 34174 ft 426 kts 266°
2026-04-14 16:39 39.95649 40.79802 34175 ft 428 kts 266°
2026-04-14 16:40 39.95629 40.72094 34178 ft 429 kts 266°
2026-04-14 16:40 39.95605 40.64355 34178 ft 427 kts 266°
2026-04-14 16:41 39.95576 40.56648 34178 ft 426 kts 266°
2026-04-14 16:41 39.95543 40.48922 34160 ft 429 kts 266°
2026-04-14 16:42 39.95505 40.41154 34146 ft 426 kts 266°
2026-04-14 16:42 39.95462 40.33427 34133 ft 427 kts 265°
2026-04-14 16:43 39.95413 40.25704 34125 ft 428 kts 265°
2026-04-14 16:43 39.95359 40.17957 34127 ft 427 kts 266°
2026-04-14 16:44 39.95301 40.10276 34128 ft 427 kts 266°
2026-04-14 16:44 39.95237 40.02536 34128 ft 428 kts 265°
2026-04-14 16:45 39.95131 39.90947 34122 ft 427 kts 266°
2026-04-14 16:45 39.95051 39.83237 34122 ft 428 kts 265°
2026-04-14 16:46 39.94965 39.75503 34118 ft 426 kts 266°
2026-04-14 16:46 39.94876 39.67800 34120 ft 428 kts 265°
2026-04-14 16:47 39.94780 39.60096 34118 ft 426 kts 265°
2026-04-14 16:47 39.94680 39.52360 34116 ft 429 kts 266°
2026-04-14 16:48 39.94579 39.44661 34126 ft 427 kts 265°
2026-04-14 16:48 39.94470 39.36918 34124 ft 428 kts 265°
2026-04-14 16:49 39.94356 39.29205 34130 ft 427 kts 265°
2026-04-14 16:49 39.94237 39.21464 34121 ft 427 kts 265°
2026-04-14 16:50 39.94113 39.13787 34126 ft 427 kts 265°
2026-04-14 16:50 39.93993 39.06042 34150 ft 428 kts 265°
2026-04-14 16:51 39.93873 38.98334 34194 ft 428 kts 265°
2026-04-14 16:51 39.93748 38.90610 34243 ft 426 kts 265°
2026-04-14 16:52 39.93350 38.82951 34280 ft 426 kts 262°
2026-04-14 16:52 39.92830 38.75250 34308 ft 426 kts 262°
2026-04-14 16:53 39.92312 38.67585 34334 ft 425 kts 262°
2026-04-14 16:53 39.91794 38.59965 34364 ft 427 kts 262°
2026-04-14 16:54 39.91268 38.52290 34361 ft 425 kts 262°
2026-04-14 16:54 39.90736 38.44613 34360 ft 426 kts 262°
2026-04-14 16:55 39.90201 38.36951 34358 ft 425 kts 262°
2026-04-14 16:55 39.89663 38.29327 34375 ft 426 kts 262°
2026-04-14 16:56 39.89117 38.21670 34377 ft 425 kts 262°
2026-04-14 16:56 39.88564 38.13974 34379 ft 426 kts 261°
2026-04-14 16:57 39.88010 38.06337 34350 ft 425 kts 262°
2026-04-14 16:57 39.87451 37.98699 34324 ft 425 kts 261°
2026-04-14 16:58 39.86892 37.91040 34291 ft 426 kts 261°
2026-04-14 16:58 39.86332 37.83432 34275 ft 425 kts 261°
2026-04-14 16:59 39.85762 37.75744 34268 ft 427 kts 262°
2026-04-14 16:59 39.85190 37.68087 34265 ft 425 kts 261°
2026-04-14 17:00 39.84614 37.60471 34263 ft 425 kts 261°
2026-04-14 17:00 39.84029 37.52795 34261 ft 427 kts 261°
2026-04-14 17:01 39.83442 37.45155 34261 ft 426 kts 261°
2026-04-14 17:01 39.82841 37.37479 34261 ft 426 kts 261°
2026-04-14 17:02 39.82237 37.29858 34265 ft 426 kts 261°
2026-04-14 17:02 39.81625 37.22190 34267 ft 426 kts 261°
2026-04-14 17:03 39.81010 37.14563 34264 ft 426 kts 262°
2026-04-14 17:03 39.80384 37.06892 34265 ft 428 kts 263°
2026-04-14 17:04 39.79752 36.99160 34264 ft 431 kts 263°
2026-04-14 17:04 39.78539 36.91545 34271 ft 435 kts 249°
2026-04-14 17:05 39.75441 36.84807 34272 ft 440 kts 231°
2026-04-14 17:05 39.71346 36.78979 34263 ft 440 kts 230°
2026-04-14 17:06 39.67170 36.73165 34262 ft 440 kts 230°
2026-04-14 17:06 39.62978 36.67384 34259 ft 440 kts 230°
2026-04-14 17:07 39.58799 36.61647 34261 ft 441 kts 230°
2026-04-14 17:07 39.54588 36.55886 34261 ft 440 kts 229°
2026-04-14 17:08 39.50393 36.50161 34258 ft 440 kts 230°
2026-04-14 17:08 39.46200 36.44453 34261 ft 440 kts 229°
2026-04-14 17:09 39.41975 36.38717 34260 ft 440 kts 229°
2026-04-14 17:09 39.37773 36.33021 34265 ft 440 kts 229°
2026-04-14 17:10 39.33550 36.27308 34260 ft 441 kts 229°
2026-04-14 17:10 39.29333 36.21616 34245 ft 440 kts 229°
2026-04-14 17:11 39.25112 36.15926 34227 ft 442 kts 229°
2026-04-14 17:11 39.20871 36.10222 34212 ft 441 kts 229°
2026-04-14 17:12 39.16621 36.04514 34208 ft 441 kts 229°
2026-04-14 17:12 39.12284 35.98970 34207 ft 442 kts 227°
2026-04-14 17:13 39.07898 35.93502 34209 ft 442 kts 227°
2026-04-14 17:13 39.03471 35.87989 34206 ft 442 kts 227°
2026-04-14 17:14 38.99077 35.82523 34208 ft 441 kts 226°
2026-04-14 17:14 38.94689 35.77077 34205 ft 440 kts 226°
2026-04-14 17:15 38.90369 35.71522 34205 ft 441 kts 227°
2026-04-14 17:15 38.86070 35.65978 34209 ft 440 kts 226°
2026-04-14 17:16 38.81744 35.60410 34210 ft 441 kts 226°
2026-04-14 17:16 38.77429 35.54866 34210 ft 441 kts 226°
2026-04-14 17:17 38.73134 35.49358 34208 ft 441 kts 226°
2026-04-14 17:17 38.68800 35.43810 34208 ft 440 kts 226°
2026-04-14 17:18 38.64481 35.38289 34205 ft 440 kts 226°
2026-04-14 17:18 38.60136 35.32746 34212 ft 441 kts 226°
2026-04-14 17:19 38.55822 35.27255 34208 ft 440 kts 226°
2026-04-14 17:19 38.51398 35.21857 34211 ft 442 kts 221°
2026-04-14 17:20 38.46713 35.16803 34208 ft 442 kts 221°
2026-04-14 17:20 38.42044 35.11780 34206 ft 442 kts 221°
2026-04-14 17:21 38.37369 35.06759 34209 ft 442 kts 223°
2026-04-14 17:21 38.32909 35.01432 34207 ft 441 kts 225°
2026-04-14 17:22 38.28434 34.96053 34211 ft 445 kts 225°
2026-04-14 17:22 38.23943 34.90651 34207 ft 445 kts 225°
2026-04-14 17:23 38.19441 34.85236 34206 ft 447 kts 225°
2026-04-14 17:23 38.14946 34.79841 34206 ft 449 kts 225°
2026-04-14 17:24 38.10400 34.74395 34205 ft 450 kts 225°
2026-04-14 17:24 38.05915 34.69031 34203 ft 449 kts 225°
2026-04-14 17:25 38.01385 34.63624 34190 ft 451 kts 225°
2026-04-14 17:25 37.96841 34.58210 34172 ft 449 kts 225°
2026-04-14 17:26 37.92288 34.52794 34157 ft 450 kts 225°
2026-04-14 17:26 37.87746 34.47395 34154 ft 450 kts 225°
2026-04-14 17:27 37.83216 34.42011 34152 ft 450 kts 225°
2026-04-14 17:27 37.78651 34.36596 34153 ft 450 kts 225°
2026-04-14 17:28 37.74102 34.31208 34158 ft 449 kts 224°
2026-04-14 17:28 37.69851 34.26181 34156 ft 449 kts 224°
2026-04-14 17:29 37.65286 34.20793 34158 ft 450 kts 224°
2026-04-14 17:29 37.60730 34.15426 34155 ft 450 kts 224°
2026-04-14 17:30 37.56184 34.10079 34155 ft 449 kts 224°
2026-04-14 17:30 37.51603 34.04702 34154 ft 450 kts 224°
2026-04-14 17:31 37.47043 33.99357 34153 ft 450 kts 224°
2026-04-14 17:31 37.42479 33.94022 34153 ft 450 kts 224°
2026-04-14 17:32 37.37888 33.88672 34152 ft 450 kts 224°
2026-04-14 17:32 37.33333 33.83372 34152 ft 449 kts 224°
2026-04-14 17:33 37.28735 33.78031 34164 ft 450 kts 224°
2026-04-14 17:34 37.21713 33.69894 34178 ft 449 kts 224°
2026-04-14 17:34 37.17134 33.64599 34193 ft 450 kts 224°
2026-04-14 17:35 37.12523 33.59277 34206 ft 450 kts 224°
2026-04-14 17:35 37.07951 33.54007 34205 ft 448 kts 224°
2026-04-14 17:36 37.03385 33.48753 34207 ft 447 kts 224°
2026-04-14 17:36 36.98794 33.43481 34206 ft 446 kts 224°
2026-04-14 17:37 36.94243 33.38263 34207 ft 445 kts 223°
2026-04-14 17:37 36.89562 33.33259 34216 ft 447 kts 214°
2026-04-14 17:38 36.83904 33.30071 34221 ft 451 kts 196°
2026-04-14 17:38 36.77636 33.29238 34215 ft 456 kts 184°
2026-04-14 17:39 36.71370 33.29086 34214 ft 455 kts 183°
2026-04-14 17:39 36.65047 33.28986 34212 ft 455 kts 183°
2026-04-14 17:40 36.58698 33.28909 34214 ft 456 kts 183°
2026-04-14 17:40 36.52416 33.28840 34209 ft 456 kts 183°
2026-04-14 17:41 36.46073 33.28775 34210 ft 456 kts 183°
2026-04-14 17:41 36.39739 33.28711 34206 ft 455 kts 183°
2026-04-14 17:42 36.33417 33.28647 34212 ft 456 kts 183°
2026-04-14 17:42 36.27098 33.28587 34209 ft 456 kts 183°
2026-04-14 17:43 36.20807 33.28526 34198 ft 456 kts 183°
2026-04-14 17:43 36.14498 33.28483 34189 ft 456 kts 182°
2026-04-14 17:44 36.08152 33.28608 34186 ft 456 kts 181°
2026-04-14 17:44 36.01864 33.28646 34189 ft 455 kts 184°
2026-04-14 17:45 35.95533 33.28404 34189 ft 456 kts 181°
2026-04-14 17:45 35.89258 33.29656 34193 ft 462 kts 168°
2026-04-14 17:46 35.83105 33.31625 34185 ft 461 kts 168°
2026-04-14 17:46 35.76916 33.33627 34185 ft 461 kts 168°
2026-04-14 17:47 35.70717 33.35643 34184 ft 461 kts 168°
2026-04-14 17:47 35.64551 33.37649 34184 ft 461 kts 168°
2026-04-14 17:48 35.58350 33.39667 34182 ft 462 kts 168°
2026-04-14 17:48 35.52174 33.41672 34183 ft 461 kts 168°
2026-04-14 17:49 35.46007 33.43672 34185 ft 462 kts 168°
2026-04-14 17:49 35.39815 33.45677 34185 ft 462 kts 168°
2026-04-14 17:50 35.33626 33.47678 34183 ft 461 kts 168°
2026-04-14 17:50 35.27440 33.49675 34183 ft 462 kts 168°
2026-04-14 17:51 35.21254 33.51668 34180 ft 461 kts 168°
2026-04-14 17:51 35.15083 33.53653 34186 ft 462 kts 168°
2026-04-14 17:52 35.08865 33.55650 34183 ft 461 kts 168°
2026-04-14 17:52 35.02675 33.57637 34185 ft 462 kts 168°
2026-04-14 17:53 34.96474 33.59629 34176 ft 464 kts 170°
2026-04-14 17:53 34.90267 33.61615 34165 ft 468 kts 172°
2026-04-14 17:54 34.83964 33.64108 34168 ft 483 kts 166°
2026-04-14 17:54 34.77761 33.66946 34148 ft 477 kts 167°
2026-04-14 17:55 34.71517 33.69800 34153 ft 480 kts 167°
2026-04-14 17:55 34.65315 33.72639 34150 ft 478 kts 167°
2026-04-14 17:56 34.59126 33.75438 34151 ft 479 kts 168°
2026-04-14 17:56 34.52786 33.77075 34165 ft 460 kts 185°
2026-04-14 17:57 34.46599 33.76219 34160 ft 440 kts 204°
2026-04-14 17:57 34.41132 33.73239 34155 ft 431 kts 216°
2026-04-14 17:58 34.35576 33.70470 34162 ft 443 kts 199°
2026-04-14 17:58 34.29413 33.69342 34152 ft 447 kts 197°
2026-04-14 17:59 34.23378 33.67894 34149 ft 444 kts 199°
2026-04-14 17:59 34.17401 33.66260 34151 ft 444 kts 200°
2026-04-14 18:00 34.11389 33.64540 34149 ft 442 kts 200°
2026-04-14 18:00 34.02468 33.61941 34151 ft 443 kts 201°
2026-04-14 18:01 33.96515 33.60200 34149 ft 444 kts 201°
2026-04-14 18:01 33.90522 33.58447 34149 ft 443 kts 201°
2026-04-14 18:02 33.84559 33.56704 34148 ft 442 kts 201°
2026-04-14 18:02 33.78572 33.54955 34150 ft 444 kts 201°
2026-04-14 18:03 33.72630 33.53223 34149 ft 443 kts 201°
2026-04-14 18:03 33.66635 33.51476 34149 ft 443 kts 201°
2026-04-14 18:04 33.60677 33.49744 34150 ft 443 kts 201°
2026-04-14 18:04 33.54709 33.48011 34146 ft 442 kts 201°
2026-04-14 18:05 33.48741 33.46280 34148 ft 444 kts 201°
2026-04-14 18:05 33.42781 33.44555 34148 ft 442 kts 201°
2026-04-14 18:06 33.36824 33.42832 34148 ft 443 kts 201°
2026-04-14 18:06 33.30882 33.41116 34147 ft 443 kts 201°
2026-04-14 18:07 33.24906 33.39394 34148 ft 442 kts 201°
2026-04-14 18:07 33.18960 33.37680 34147 ft 443 kts 201°
2026-04-14 18:08 33.12972 33.35959 34144 ft 442 kts 201°
2026-04-14 18:08 33.07006 33.34249 34159 ft 442 kts 201°
2026-04-14 18:09 33.06037 33.33972 34160 ft 442 kts 201°
2026-04-14 18:09 32.95660 33.31003 34160 ft 440 kts 204°
2026-04-14 18:10 32.88686 33.29004 34131 ft 440 kts 204°
2026-04-14 18:10 32.82761 33.27310 34109 ft 442 kts 204°
2026-04-14 18:11 32.76825 33.25618 34092 ft 440 kts 204°
2026-04-14 18:11 32.70891 33.23927 34080 ft 442 kts 204°
2026-04-14 18:12 32.65913 33.22512 34064 ft 441 kts 204°
2026-04-14 18:13 32.53521 33.18995 34051 ft 443 kts 204°
2026-04-14 18:13 32.47585 33.17314 34051 ft 441 kts 204°
2026-04-14 18:14 32.41631 33.15630 34050 ft 442 kts 204°
2026-04-14 18:14 32.35673 33.13948 34049 ft 442 kts 204°
2026-04-14 18:15 32.29747 33.12276 34049 ft 441 kts 204°
2026-04-14 18:15 32.23760 33.10613 34048 ft 444 kts 201°
2026-04-14 18:16 32.20691 33.10202 34055 ft 457 kts 192°
2026-04-14 18:16 32.17454 33.10267 34055 ft 465 kts 188°
2026-04-14 18:16 32.11042 33.10560 34049 ft 464 kts 188°
2026-04-14 18:17 32.04607 33.10870 34048 ft 464 kts 188°
2026-04-14 18:17 32.00323 33.11080 34050 ft 466 kts 188°